Back to catalog

SITRO-AIS-26

AliveCommunicationsPO
NORAD 59067·PAYLOAD·🇷🇺 Russia
This satellite name has not been confirmed by official sources yet.

Launched Feb 29, 2024 from Vostochny Cosmodrome

Loading…

Next Passes (next 24 hours)

TLE

FreshSource: Space-Track

Epoch: Sep 14, 2026, 13:15 UTC

1 59067U 24039S   26257.55263501  .00002428  00000-0  18893-3 0  9992
2 59067  95.3817 296.3561 0144281  16.9266 343.6700 14.93815558138053

Track SITRO-AIS-26 in real time with AllMySat

Download on the App Store